[[{"header":{"parameterUnit":"m.s-1","parameterCategory":1,"la1":30.2991,"la2":30.254,"lo1":-89.0895,"lo2":-89.0444,"dx":0.0017,"dy":0.0017,"nx":28,"ny":28,"refTime":"2023-01-20T09:00:00:Z","depth":0,"parameterNumber":2,"parameterNumberName":"U-component_of_WINDS"},"data":[0,0,0,0,0,0,0,0,0,0,0,0,0,0,0,0,0,0,0,0,0,0,0,0,0,0,0,0,0,0,0,0,0,0,0,0,0,0,0,0,0,0,0,0,0,0,0,0,0,0,0,0,0,0,0,0,0,0,0.0602,0.0602,0,0.0573,0.0572,0.0572,0.0572,0.0572,0.0573,0.0573,0.0542,0.0541,0.054,0,0,0,0,0,0,0,0,0,0,0,0,0,0.0657,0.0656,0.0602,0.0602,0.0601,0.0573,0.0572,0.0572,0.0572,0.0572,0.0573,0.0573,0.0542,0.0541,0.0539,0,0,0,0,0,0,0,0,0,0,0,0,0,0.0631,0.0655,0.0602,0.0598,0.0597,0.0573,0.0572,0.0572,0.0572,0.0572,0.0573,0.0574,0.0543,0.0541,0.0539,0.0517,0,0,0.0534,0.0533,0,0,0,0,0,0,0,0,0.0632,0.0629,0.0599,0.0598,0.0597,0.0577,0.058,0.0553,0.0572,0.0581,0.0573,0.0574,0.0553,0.055,0.0544,0.0515,0.0514,0.0534,0.0533,0.0532,0.0531,0,0,0,0,0,0,0,0.0634,0.063,0.059,0.0598,0.0597,0.0597,0.0594,0.0575,0.0564,0.0581,0.0581,0.0577,0.0553,0.0545,0.0543,0.0513,0.0534,0.0532,0.0531,0.053,0.0466,0.0465,0,0,0,0,0,0,0.0637,0.0631,0.0591,0.059,0.0617,0.0596,0.0592,0.0583,0.0564,0.0562,0.0577,0.0577,0.0548,0.0545,0.0542,0.0514,0.0532,0.053,0.0529,0.0467,0.0466,0.0465,0,0,0,0,0,0,0.0638,0.0633,0.0592,0.061,0.0605,0.0594,0.0583,0.0582,0.0575,0.0562,0.056,0.0571,0.0548,0.0544,0.0523,0.0513,0.0529,0.0528,0.0467,0.0466,0.0465,0.0459,0,0,0,0,0,0,0.0639,0.0634,0.0625,0.061,0.0604,0.0575,0.0583,0.0581,0.0572,0.0572,0.0556,0.0554,0.0548,0.0526,0.0521,0.0511,0.0526,0.0468,0.0467,0.0466,0.046,0.0458,0.0457,0,0,0,0,0,0.0641,0.0624,0.0625,0.062,0.0593,0.0574,0.0571,0.0565,0.0571,0.0562,0.0554,0.0554,0.0515,0.0524,0.0519,0.0508,0.0469,0.0467,0.0466,0.0461,0.0459,0.0457,0,0,0,0,0,0,0.0637,0.0622,0.0622,0.06,0.0588,0.0574,0.0563,0.0563,0.0549,0.055,0.0543,0.054,0.0519,0.0511,0.0521,0.0485,0.0493,0.049,0.0491,0.0488,0.0487,0.0488,0.0525,0,0,0,0,0,0.0634,0.062,0.0607,0.0588,0.0583,0.0574,0.0565,0.0562,0.055,0.0545,0.0535,0.0523,0.0508,0.0498,0.0483,0.046,0.0456,0.045,0.0448,0.0446,0.0444,0.0431,0.0428,0.046,0.046,0.046,0,0,0.0626,0.0616,0.0607,0.0587,0.0578,0.0563,0.057,0.0554,0.0543,0.0542,0.0522,0.0514,0.05,0.0478,0.0468,0.0471,0.0435,0.0445,0.0443,0.0442,0.043,0.0427,0.0424,0.0459,0.046,0.046,0,0,0.0605,0.0596,0.058,0.057,0.0557,0.0551,0.0547,0.0533,0.0528,0.0508,0.0508,0.0494,0.0469,0.0459,0.045,0.0426,0.0426,0.0422,0.0412,0.0399,0.0397,0.0395,0.0386,0.0383,0.042,0.042,0.042,0,0.0597,0.0575,0.0571,0.0555,0.0546,0.0546,0.0529,0.0521,0.0503,0.0496,0.0501,0.0469,0.0459,0.0435,0.0429,0.0422,0.0418,0.0423,0.0398,0.0395,0.0393,0.0385,0.0382,0.0419,0.0419,0.0419,0.0419,0,0.0566,0.0551,0.0539,0.0523,0.0513,0.0496,0.049,0.048,0.0478,0.0472,0.0452,0.0441,0.0424,0.0418,0.0416,0.0394,0.0396,0.0399,0.0406,0.039,0.0382,0.0379,0.0419,0.0419,0.0419,0.0419,0,0,0.054,0.0522,0.0518,0.0511,0.0496,0.0484,0.0468,0.0453,0.0444,0.0432,0.0418,0.0397,0.04,0.0391,0.0388,0.0377,0.0359,0.0381,0.0381,0.0377,0.0334,0.0331,0.0328,0.0359,0.0359,0.0358,0.0335,0,0.0517,0.0489,0.0485,0.046,0.0446,0.0446,0.0432,0.0422,0.0416,0.0403,0.0397,0.0382,0.0387,0.0381,0.0371,0.0363,0.035,0.0365,0.0346,0.0345,0.0349,0.0324,0.0321,0.0299,0.0332,0.0331,0.0331,0,0.0485,0.0473,0.0447,0.0435,0.0429,0.0417,0.0402,0.039,0.0379,0.0375,0.0365,0.0364,0.0347,0.0356,0.0333,0.0343,0.0335,0.0331,0.033,0.0327,0.0337,0.032,0.0292,0.0289,0.0326,0.0326,0.0327,0,0.0469,0.0446,0.0427,0.0421,0.0407,0.0398,0.0392,0.038,0.0372,0.0359,0.0353,0.0339,0.0331,0.032,0.0315,0.0322,0.0292,0.03,0.0289,0.0289,0.0282,0.0282,0.0252,0.0278,0.0278,0.0278,0.0278,0,0.0443,0.0427,0.042,0.0408,0.039,0.0387,0.0369,0.0363,0.0353,0.034,0.034,0.0328,0.0322,0.0309,0.0305,0.0286,0.0283,0.0279,0.0278,0.0279,0.028,0.0273,0.0275,0.0277,0.0277,0.0277,0.0277,0,0.0421,0.0415,0.0395,0.0384,0.0381,0.0368,0.0358,0.0347,0.0342,0.0326,0.0322,0.0313,0.0298,0.0292,0.0274,0.0271,0.025,0.025,0.0254,0.0253,0.0242,0.0243,0.0206,0.0201,0.0231,0.023,0.023,0,0.0404,0.0392,0.0379,0.0371,0.0365,0.0351,0.0342,0.0339,0.0329,0.0316,0.0306,0.0291,0.0279,0.0255,0.0247,0.0233,0.0233,0.0221,0.0231,0.0232,0.0233,0.0233,0.0232,0.0219,0.0219,0.0219,0.0218,0,0.0375,0.0374,0.0361,0.0348,0.0338,0.0327,0.0317,0.031,0.0305,0.0295,0.028,0.027,0.0252,0.0237,0.0223,0.0216,0.0216,0.0216,0.0212,0.0212,0.0215,0.0213,0.0248,0.0216,0.0216,0.0217,0.0217,0.0217,0.0355,0.0344,0.0334,0.0321,0.0313,0.0303,0.0293,0.0287,0.0274,0.0259,0.0258,0.0242,0.0231,0.0212,0.0205,0.0192,0.0195,0.019,0.0188,0.0187,0.0186,0.0218,0.0189,0.0189,0.0189,0.0189,0.0189,0,0.0326,0.032,0.0308,0.0294,0.0283,0.0285,0.0274,0.0265,0.0251,0.0241,0.023,0.0213,0.0199,0.019,0.0176,0.0168,0.0168,0.0164,0.0165,0.0163,0.0184,0.0189,0.0165,0.0165,0.0165,0.0165,0.0165,0.0165,0.031,0.0292,0.0289,0.0267,0.0261,0.0246,0.0239,0.0231,0.0223,0.0204,0.0193,0.0188,0.0179,0.0164,0.0152,0.015,0.0144,0.0141,0.0139,0.0159,0.0161,0.0164,0.0168,0.014,0.014,0.0118,0.0118,0.0118]},{"header":{"parameterUnit":"m.s-1","parameterCategory":1,"la1":30.2991,"la2":30.254,"lo1":-89.0895,"lo2":-89.0444,"dx":0.0017,"dy":0.0017,"nx":28,"ny":28,"refTime":"2023-01-20T09:00:00:Z","depth":0,"parameterNumber":3,"parameterNumberName":"V-component_of_WINDS"},"data":[0,0,0,0,0,0,0,0,0,0,0,0,0,0,0,0,0,0,0,0,0,0,0,0,0,0,0,0,0,0,0,0,0,0,0,0,0,0,0,0,0,0,0,0,0,0,0,0,0,0,0,0,0,0,0,0,0,0,-4.4403,-4.4405,0,-4.4525,-4.4526,-4.4528,-4.4483,-4.448,-4.4478,-4.4475,-4.4598,-4.4603,-4.4609,0,0,0,0,0,0,0,0,0,0,0,0,0,-4.4131,-4.4137,-4.4403,-4.4405,-4.4406,-4.4525,-4.4526,-4.4528,-4.4484,-4.448,-4.4477,-4.4474,-4.4596,-4.4603,-4.461,0,0,0,0,0,0,0,0,0,0,0,0,0,-4.4251,-4.4138,-4.4403,-4.4398,-4.4399,-4.4524,-4.4526,-4.4528,-4.4484,-4.448,-4.4476,-4.4472,-4.4593,-4.4602,-4.4611,-4.4747,0,0,-4.4637,-4.4641,0,0,0,0,0,0,0,0,-4.4244,-4.4261,-4.4398,-4.4399,-4.44,-4.4485,-4.4475,-4.4602,-4.4485,-4.4452,-4.4475,-4.447,-4.4563,-4.4574,-4.4606,-4.4753,-4.4758,-4.4638,-4.4643,-4.4647,-4.465,0,0,0,0,0,0,0,-4.4236,-4.4255,-4.4451,-4.44,-4.4401,-4.439,-4.4402,-4.4499,-4.4529,-4.4454,-4.4452,-4.4467,-4.4563,-4.4598,-4.4609,-4.476,-4.4638,-4.4646,-4.4651,-4.4654,-4.5026,-4.503,0,0,0,0,0,0,-4.4227,-4.4249,-4.4447,-4.4455,-4.431,-4.4398,-4.4412,-4.4462,-4.4528,-4.4534,-4.447,-4.4464,-4.4585,-4.4598,-4.4613,-4.4778,-4.4647,-4.4655,-4.466,-4.5021,-4.5027,-4.5032,0,0,0,0,0,0,-4.4222,-4.4245,-4.4442,-4.4351,-4.4375,-4.4407,-4.4463,-4.4466,-4.4501,-4.454,-4.4545,-4.45,-4.4582,-4.46,-4.4714,-4.4782,-4.4659,-4.4667,-4.5016,-4.5023,-4.5029,-4.5109,0,0,0,0,0,0,-4.4214,-4.4244,-4.4296,-4.4353,-4.438,-4.4543,-4.4467,-4.4472,-4.4516,-4.451,-4.4569,-4.4575,-4.458,-4.4702,-4.4723,-4.4791,-4.4674,-4.501,-4.5019,-4.5027,-4.5101,-4.5118,-4.5133,0,0,0,0,0,-4.4204,-4.4313,-4.4299,-4.4323,-4.4447,-4.4547,-4.4563,-4.4567,-4.4522,-4.4575,-4.46,-4.4573,-4.4771,-4.4714,-4.4737,-4.4809,-4.5006,-4.5016,-4.5026,-4.5093,-4.5115,-4.5132,0,0,0,0,0,0,-4.4262,-4.432,-4.4305,-4.4435,-4.4487,-4.4539,-4.4606,-4.4589,-4.4653,-4.4644,-4.4646,-4.466,-4.4778,-4.4805,-4.474,-4.4946,-4.4881,-4.4897,-4.4924,-4.4944,-4.496,-4.4952,-4.4681,0,0,0,0,0,-4.429,-4.4367,-4.4413,-4.4524,-4.455,-4.4574,-4.4617,-4.4617,-4.4669,-4.4691,-4.4724,-4.4776,-4.485,-4.4898,-4.4968,-4.5104,-4.5117,-4.5165,-4.5181,-4.5194,-4.5208,-4.5283,-4.5306,-4.5066,-4.5066,-4.5066,0,0,-4.4349,-4.439,-4.4438,-4.4536,-4.4576,-4.4656,-4.4592,-4.4679,-4.4738,-4.4703,-4.4814,-4.484,-4.4898,-4.5024,-4.5081,-4.505,-4.5277,-4.5207,-4.5217,-4.5224,-4.5296,-4.5319,-4.5339,-4.5073,-4.5072,-4.5071,0,0,-4.4496,-4.4535,-4.4632,-4.4673,-4.4734,-4.4749,-4.4773,-4.4828,-4.4845,-4.4956,-4.4932,-4.5002,-4.5129,-4.5171,-4.521,-4.5375,-4.5353,-4.5397,-4.5482,-4.5555,-4.5574,-4.5591,-4.5651,-4.5672,-4.5411,-4.5411,-4.5411,0,-4.4561,-4.4681,-4.4684,-4.4773,-4.4817,-4.4791,-4.4889,-4.4928,-4.5009,-4.504,-4.5004,-4.5164,-4.5201,-4.5337,-4.5378,-4.5409,-4.5436,-4.5391,-4.5571,-4.5588,-4.5603,-4.5661,-4.5684,-4.5416,-4.5415,-4.5415,-4.5414,0,-4.4758,-4.4842,-4.4912,-4.4993,-4.5044,-4.5138,-4.5155,-4.5207,-4.5202,-4.5221,-4.5334,-4.5378,-4.5457,-4.5489,-4.5484,-4.5625,-4.5604,-4.557,-4.5505,-4.5631,-4.5686,-4.5708,-4.5423,-4.5422,-4.542,-4.5419,0,0,-4.4946,-4.5027,-4.5053,-4.509,-4.5156,-4.522,-4.5312,-4.539,-4.5436,-4.5492,-4.557,-4.5679,-4.5648,-4.5691,-4.5691,-4.5755,-4.5885,-4.5713,-4.5714,-4.5745,-4.6045,-4.6071,-4.6097,-4.587,-4.5874,-4.5878,-4.604,0,-4.51,-4.5263,-4.5269,-4.5418,-4.5495,-4.5471,-4.5552,-4.5601,-4.5621,-4.569,-4.5711,-4.5789,-4.5741,-4.5768,-4.583,-4.5856,-4.5945,-4.5844,-4.5943,-4.5947,-4.5931,-4.6125,-4.6153,-4.6304,-4.6061,-4.6065,-4.6067,0,-4.5302,-4.5366,-4.5523,-4.5579,-4.5612,-4.5684,-4.5757,-4.5823,-4.5878,-4.5888,-4.5938,-4.5928,-4.6023,-4.5955,-4.6085,-4.6016,-4.6057,-4.6076,-4.6082,-4.6092,-4.6016,-4.6142,-4.6352,-4.6376,-4.6101,-4.6098,-4.6095,0,-4.5425,-4.555,-4.5661,-4.5693,-4.5761,-4.5812,-4.5843,-4.5894,-4.5941,-4.6005,-4.6035,-4.6108,-4.6149,-4.6206,-4.6216,-4.6165,-4.6347,-4.628,-4.6359,-4.6359,-4.64,-4.6397,-4.6621,-4.6424,-4.6423,-4.6423,-4.6422,0,-4.5597,-4.5694,-4.5718,-4.5786,-4.5895,-4.59,-4.6007,-4.6033,-4.608,-4.6153,-4.6135,-4.6204,-4.6213,-4.6284,-4.6293,-4.64,-4.6418,-4.6429,-4.6431,-4.6432,-4.6431,-4.646,-4.645,-4.6429,-4.6427,-4.6426,-4.6425,0,-4.5753,-4.5773,-4.5892,-4.5947,-4.5963,-4.6041,-4.6088,-4.6153,-4.6171,-4.6264,-4.6286,-4.6315,-4.6398,-4.6414,-4.6511,-4.6517,-4.6646,-4.6636,-4.6628,-4.6627,-4.6707,-4.67,-4.6958,-4.6993,-4.6771,-4.6773,-4.6775,0,-4.5863,-4.5937,-4.6001,-4.6049,-4.6083,-4.616,-4.6208,-4.6216,-4.6268,-4.6337,-4.6394,-4.6475,-4.6541,-4.6675,-4.6704,-4.6779,-4.6772,-4.6857,-4.6783,-4.6782,-4.6775,-4.6771,-4.6779,-4.6872,-4.6874,-4.6876,-4.6878,0,-4.6055,-4.6062,-4.6132,-4.6208,-4.6266,-4.6325,-4.6381,-4.6422,-4.6437,-4.6495,-4.6581,-4.6632,-4.6732,-4.6813,-4.6888,-4.6919,-4.6902,-4.6901,-4.6923,-4.6926,-4.6919,-4.6926,-4.6669,-4.6895,-4.6893,-4.6892,-4.6891,-4.689,-4.6193,-4.6259,-4.6314,-4.6394,-4.6437,-4.649,-4.6555,-4.6582,-4.6654,-4.6737,-4.6737,-4.6831,-4.6885,-4.6984,-4.702,-4.7093,-4.7066,-4.7098,-4.7106,-4.7115,-4.7123,-4.6906,-4.7106,-4.7106,-4.7105,-4.7105,-4.7104,0,-4.6386,-4.6421,-4.6494,-4.6574,-4.6637,-4.6616,-4.6677,-4.6731,-4.6814,-4.6866,-4.6932,-4.703,-4.7109,-4.7145,-4.7223,-4.7275,-4.7269,-4.7295,-4.7292,-4.73,-4.7142,-4.7116,-4.7299,-4.7299,-4.7299,-4.7299,-4.7299,-4.7299,-4.6494,-4.6605,-4.6618,-4.675,-4.6784,-4.6877,-4.6914,-4.6963,-4.7005,-4.7116,-4.7182,-4.7205,-4.7252,-4.7333,-4.7405,-4.7413,-4.7443,-4.7474,-4.7479,-4.7331,-4.7311,-4.7292,-4.7267,-4.748,-4.748,-4.7631,-4.7632,-4.7633]}]]